Wind_Speed
7 6 6 7 5 5 6 5 4 3 4 5 4 5 2 2 2 2 3 1 2 2 1 5 7 7 7 8 7 8 8 7 7 3 1 4 7 12 15 20 27 25 23 23 24 24 24 27 28 27 27 27 27 28 28 28 28 28 27 27 27 27 27 26 25 25 23 21 21 22 22 21 21 21 20 18 18 18 19 18 18 19 19 20 20 20 20 20 20 18 17 16 15 16 16 16 16
5 6 6 7 6 6 3 3 5 3 5 5 4 3 2 3 3 4 2 2 3 3 6 8 10 8 7 8 8 9 5 3 7 5 3 7 12 13 18 24 26 25 24 23 23 24 23 25 28 28 27 27 27 28 28 29 29 28 27 27 27 27 26 26 25 24 23 22 22 22 22 21 20 20 20 19 18 18 19 18 18 19 19 19 19 20 20 20 19 17 16 15 14 14 14 14 14
6 7 7 8 6 5 2 3 5 2 4 4 1 3 3 1 2 1 2 4 6 8 9 9 10 5 6 8 5 6 2 4 5 6 6 10 12 14 21 24 24 25 24 23 23 23 22 24 28 29 28 27 28 28 28 29 29 28 28 27 27 26 25 24 22 22 22 23 23 22 22 20 20 21 20 20 19 19 19 19 19 19 18 17 18 19 18 17 16 16 15 14 13 12 12 12 12
7 7 8 9 6 4 4 4 4 3 4 4 0 5 3 1 3 4 4 7 8 9 9 8 6 0 5 5 0 3 1 3 2 4 6 10 11 18 24 24 24 24 23 23 22 22 22 25 29 28 28 27 27 28 28 29 28 27 27 26 26 24 22 21 20 21 21 22 23 22 22 21 21 21 21 20 19 19 20 19 19 18 17 16 17 17 16 15 15 14 14 13 12 11 11 10 11
6 7 8 7 4 2 3 3 3 5 4 3 1 4 3 3 5 7 8 9 9 9 7 7 3 3 2 2 3 3 2 3 2 5 7 10 14 21 24 24 24 23 23 23 22 22 22 26 29 28 27 27 27 28 28 27 27 27 27 26 25 23 22 21 21 21 21 22 22 23 23 22 21 22 22 21 19 20 20 19 18 17 17 16 16 16 16 15 14 13 13 12 11 10 10 9 9
6 8 7 7 3 1 3 3 3 5 3 3 4 2 3 4 8 9 10 10 7 7 6 5 4 1 2 3 3 3 3 1 3 6 8 13 18 22 23 23 22 22 23 22 21 21 23 27 28 28 27 27 27 27 27 27 27 27 27 26 24 23 22 22 22 22 21 22 23 24 23 22 23 23 22 21 20 20 20 19 18 17 15 15 15 15 15 14 14 13 12 12 11 11 10 9 8
7 7 6 5 2 2 5 4 4 4 0 2 5 5 6 7 9 9 10 9 5 3 4 3 3 4 2 5 3 5 2 1 4 7 11 16 21 23 23 22 21 22 22 21 21 21 24 28 28 27 27 27 27 27 27 27 27 27 27 26 24 23 23 22 22 20 21 22 23 23 21 22 23 21 19 20 20 20 20 20 18 16 15 14 14 14 13 13 13 12 12 12 11 11 10 9 8
8 5 3 5 3 3 5 4 4 3 1 2 4 5 7 8 8 9 10 8 5 3 5 4 4 6 2 5 2 5 3 3 6 10 16 20 22 22 22 21 22 22 21 20 20 22 25 27 27 26 27 27 27 27 27 27 26 25 25 24 23 23 22 21 20 19 20 21 21 21 21 22 21 19 18 18 19 20 21 21 17 16 17 15 13 13 12 12 12 11 11 11 10 9 9 9 9
9 5 2 5 4 4 5 5 4 3 1 1 2 3 5 7 8 9 10 8 6 5 6 5 6 5 5 5 2 5 5 5 11 15 19 22 21 21 21 21 22 23 21 20 21 23 23 26 27 25 26 25 26 26 26 26 25 25 24 24 24 23 22 20 20 19 19 20 20 20 21 21 19 18 17 16 17 17 19 19 17 16 16 14 12 12 11 11 11 9 9 10 9 9 9 10 11
7 4 3 4 4 4 5 5 3 2 1 1 2 2 4 6 8 8 10 9 6 5 5 4 6 5 5 6 4 5 5 10 16 18 19 21 21 20 21 21 21 23 21 21 22 23 23 25 27 26 25 25 25 24 24 25 25 26 25 25 24 24 23 21 20 19 19 19 18 18 19 19 18 17 17 15 15 15 15 16 16 16 14 12 12 11 10 10 11 9 9 9 9 9 10 12 12
5 3 4 4 5 5 4 3 2 2 2 1 1 2 4 7 8 8 9 8 5 4 4 4 7 7 6 5 4 5 8 13 18 19 20 21 21 20 20 21 21 22 22 22 22 23 24 24 25 26 25 25 24 22 23 24 25 25 25 24 23 21 20 20 20 19 19 19 17 17 18 17 17 17 16 15 14 14 14 14 15 15 13 12 11 11 11 11 10 10 10 9 8 10 12 13 13
4 4 4 5 5 4 3 3 1 1 1 2 4 5 6 7 8 10 10 8 5 3 4 6 4 7 7 5 4 7 10 14 18 20 20 20 20 19 20 20 21 21 22 22 22 23 24 23 23 24 25 24 22 21 22 23 24 24 23 23 21 19 18 19 19 19 19 19 18 17 17 16 16 17 16 15 12 12 13 14 14 13 12 12 12 12 12 11 10 10 10 9 8 10 13 13 12
5 4 5 5 4 4 3 4 1 2 2 4 5 6 7 7 10 11 11 9 2 0 3 4 2 6 6 6 6 7 11 14 18 20 20 19 19 19 19 20 21 21 22 22 22 23 24 23 22 22 23 23 21 21 22 23 23 23 23 22 19 18 18 18 18 18 19 18 17 16 16 16 16 17 16 14 12 11 12 12 13 13 12 12 12 12 12 11 11 11 11 9 9 11 13 13 12
4 3 5 4 3 5 5 4 2 3 3 7 5 7 7 5 9 10 10 8 3 4 1 2 3 6 5 5 6 7 11 16 19 20 19 18 18 19 19 20 21 21 22 21 21 23 23 22 22 22 22 21 21 21 21 22 21 22 22 21 19 17 17 17 16 17 17 17 17 16 15 15 15 17 16 13 12 12 12 12 13 15 14 13 12 12 12 12 12 12 11 9 9 10 13 12 11
4 2 4 5 4 5 5 4 2 3 3 7 4 8 8 4 7 9 10 8 4 4 0 3 3 3 3 3 5 9 14 19 21 20 19 19 18 18 18 20 21 21 21 20 21 22 22 21 22 22 21 20 20 19 18 19 20 21 21 21 19 18 17 16 16 16 16 16 16 15 15 15 15 16 15 14 14 13 13 12 13 15 14 13 13 12 13 13 13 12 11 10 9 9 12 13 11
4 3 4 6 6 5 4 3 3 3 3 6 5 8 8 6 7 8 8 7 2 2 2 3 2 1 2 2 6 15 20 21 22 20 19 19 19 18 18 19 20 20 20 20 20 19 20 21 21 21 20 20 20 19 18 17 18 19 20 20 19 19 18 16 16 16 16 16 15 15 15 14 14 15 16 15 14 14 13 12 12 14 14 13 13 12 13 13 13 12 11 11 10 9 12 13 11
3 4 6 5 6 5 2 4 2 1 3 5 7 9 9 8 8 8 5 5 2 0 2 2 2 3 5 4 12 22 23 22 22 21 20 19 19 18 17 17 18 18 18 19 19 18 19 20 21 20 19 19 19 19 19 18 17 18 19 20 19 19 18 17 17 16 16 15 15 15 14 14 14 15 16 15 13 13 12 11 11 13 13 12 12 12 12 13 13 12 11 11 11 10 11 13 11
5 5 6 6 6 3 2 1 3 4 4 6 9 9 10 10 9 9 5 3 2 1 3 3 3 4 6 9 17 23 23 22 22 21 20 18 16 16 15 16 17 17 18 18 18 18 19 19 19 19 19 18 19 19 18 19 19 18 18 19 18 17 18 18 17 16 16 15 15 15 13 14 15 15 15 15 13 12 12 10 10 11 11 11 11 11 12 13 13 12 11 10 11 10 12 13 12
7 5 6 6 2 3 4 3 4 4 6 8 9 8 9 9 8 9 8 5 3 3 4 5 5 7 9 12 18 21 21 21 20 19 19 17 15 15 15 16 16 16 16 17 17 17 18 18 18 17 17 18 19 18 17 19 19 17 16 16 16 17 18 18 16 15 15 15 16 15 13 14 16 17 16 15 14 12 11 10 9 9 9 10 10 11 12 13 12 12 11 11 11 10 11 12 11
7 5 7 4 1 3 3 1 2 4 7 8 9 9 9 7 7 8 9 9 2 2 2 4 6 8 9 13 17 19 20 19 18 18 19 18 18 16 15 15 15 15 15 15 15 16 16 17 16 15 16 17 17 17 18 18 18 17 15 15 16 18 19 18 16 15 15 16 17 14 12 12 15 17 16 15 13 11 10 10 9 8 8 9 10 11 11 12 11 12 12 12 10 8 9 10 10
5 6 7 1 2 1 3 1 3 5 7 8 9 10 9 7 8 8 9 8 1 3 2 1 3 8 11 14 16 17 19 18 18 19 18 18 18 17 16 15 15 15 15 14 14 14 15 15 15 15 16 16 15 16 18 18 18 16 15 17 16 17 18 17 17 17 17 17 15 12 11 11 12 15 15 12 11 10 10 10 9 8 8 9 10 10 10 11 10 11 12 10 8 7 8 8 9
4 7 7 1 1 3 2 1 5 6 8 8 9 9 9 9 9 7 8 8 2 4 3 2 1 8 11 14 15 16 17 17 18 18 17 17 17 17 16 16 16 15 15 14 14 14 14 15 15 16 17 16 15 16 17 17 17 16 15 16 15 14 15 15 15 15 16 15 13 11 11 11 11 12 12 10 10 10 9 9 8 8 8 8 9 8 9 10 9 10 10 9 7 7 8 8 9
6 7 7 5 5 6 3 5 7 7 9 8 9 9 9 11 10 7 7 9 7 6 4 3 2 9 11 14 15 16 17 16 17 18 18 18 18 18 17 17 16 16 16 15 16 14 14 15 14 16 17 17 16 16 17 17 16 15 14 15 14 13 13 12 12 12 13 13 12 12 11 11 11 11 11 10 9 9 8 8 8 8 8 7 7 8 8 8 8 8 8 8 8 8 8 9 10
9 6 5 6 6 7 7 7 8 8 9 9 9 10 10 11 9 8 10 9 6 6 4 1 6 12 12 14 15 15 16 17 17 18 18 18 17 16 17 17 14 15 16 17 20 20 17 15 16 18 17 18 18 17 17 17 16 15 14 13 12 12 12 12 11 12 12 12 12 11 11 10 11 11 11 10 9 9 8 8 8 7 7 7 6 7 7 7 7 8 8 8 8 9 9 10 10
12 9 4 6 6 6 7 8 8 8 8 8 9 10 10 9 9 11 13 6 5 4 2 6 11 12 12 14 15 15 15 16 16 17 17 15 13 13 15 16 14 15 15 16 19 22 20 18 19 19 19 19 20 18 16 17 17 15 14 12 11 12 11 11 12 12 12 11 11 11 10 10 11 11 11 10 9 9 8 8 8 7 7 6 6 6 6 7 7 8 8 9 9 9 10 10 11
8 10 7 6 7 7 7 8 9 8 7 7 10 11 9 6 8 9 7 4 5 3 6 9 11 12 12 13 14 14 14 15 15 17 16 14 13 14 15 15 15 15 14 15 15 17 20 19 18 19 20 19 18 17 15 16 17 14 13 11 11 12 10 12 12 12 12 11 11 11 10 10 11 11 10 10 10 9 8 8 8 7 6 5 5 6 6 7 7 8 8 9 10 10 10 11 11
2 6 6 7 8 6 7 8 8 8 8 9 11 11 7 5 6 6 2 7 3 4 8 10 11 12 11 13 13 12 13 16 17 17 16 15 17 18 17 16 17 16 15 17 16 17 20 20 18 19 20 19 17 16 15 16 16 13 12 11 11 12 11 12 12 12 12 11 12 11 10 11 10 10 11 10 10 10 8 7 7 7 6 5 5 6 6 7 8 8 8 8 9 9 10 11 11
2 5 6 8 8 7 8 8 8 7 7 8 9 10 9 7 9 8 2 5 2 5 8 10 10 11 11 12 12 11 12 17 18 18 18 18 19 19 19 19 19 20 19 21 22 26 27 24 23 21 20 20 18 16 15 16 16 13 12 11 11 12 12 12 11 11 11 11 12 12 11 11 11 11 12 11 10 9 8 7 7 7 6 5 5 6 7 7 7 8 8 8 8 9 10 10 10
5 5 7 8 8 9 8 7 6 7 6 5 6 9 10 10 12 8 1 2 2 5 7 9 9 10 11 12 12 11 13 17 18 18 19 20 19 20 20 21 21 20 19 20 21 29 33 28 26 22 21 23 20 18 17 15 15 14 12 11 11 13 13 12 11 11 11 12 13 12 12 12 11 12 12 11 10 10 9 8 7 7 7 6 5 6 7 8 8 8 8 8 9 9 9 9 8
5 5 7 5 7 7 5 3 4 6 3 3 6 7 7 10 11 4 3 2 4 6 8 8 8 9 10 12 11 11 13 16 17 18 19 20 19 19 21 21 20 17 13 15 17 22 30 29 26 24 22 24 21 21 20 15 14 13 12 11 12 13 13 12 12 11 12 12 13 12 12 12 11 12 11 11 10 10 9 8 7 7 7 7 6 7 7 7 8 8 9 9 9 9 9 8 8
4 4 5 5 6 3 7 3 3 4 2 3 8 7 5 7 8 2 3 2 5 7 8 8 8 8 9 11 11 12 13 15 17 19 19 19 19 19 22 21 20 16 10 13 14 14 21 24 24 23 22 23 20 20 20 15 13 12 11 11 12 13 12 12 12 12 12 12 12 12 11 11 11 11 11 11 10 9 9 9 8 8 7 7 6 7 7 7 8 8 8 9 9 8 9 8 8
5 4 5 5 5 3 6 4 1 1 3 4 7 6 6 5 7 4 3 2 4 6 7 8 8 9 9 10 10 10 11 15 18 19 18 19 18 17 20 21 20 17 11 12 13 13 18 21 22 22 22 24 22 20 20 17 15 13 11 11 12 13 12 12 12 12 12 11 11 11 11 11 11 11 11 10 10 9 9 9 9 8 8 7 6 7 8 8 9 9 8 9 8 8 9 9 9
5 6 5 4 4 2 4 6 3 2 1 4 6 5 6 3 5 3 1 1 3 5 7 8 8 9 10 9 9 9 10 14 16 18 19 19 19 17 19 20 19 18 13 13 16 18 20 20 22 24 24 26 23 21 21 18 17 14 11 12 12 13 13 12 13 12 12 11 10 10 11 11 10 11 10 10 9 8 8 8 9 9 7 7 7 7 7 8 9 9 9 8 8 9 9 10 10
6 6 5 4 5 4 2 5 6 1 3 4 4 6 8 5 3 3 2 2 4 5 6 8 8 9 10 9 10 10 11 13 14 16 19 19 18 17 18 19 19 19 16 15 18 20 21 21 23 24 25 26 23 22 21 16 17 15 11 12 13 14 14 12 13 12 12 11 10 10 10 10 10 11 10 9 9 8 8 8 8 9 7 6 7 7 7 8 9 9 10 9 8 9 9 10 10
5 6 5 5 5 6 4 3 3 1 5 6 6 7 9 11 8 6 4 4 6 6 5 7 9 10 11 11 10 11 12 13 13 15 17 18 17 16 17 18 19 18 16 16 18 20 20 21 24 24 23 23 23 23 22 17 17 16 11 12 12 14 14 12 12 12 12 11 11 11 11 10 10 10 10 9 9 8 8 8 8 8 7 6 7 8 8 9 9 10 10 10 8 8 9 10 11
2 3 4 5 4 5 4 1 0 2 6 7 9 10 10 12 11 8 6 5 6 6 5 7 9 10 10 11 11 11 13 13 13 16 17 17 16 15 16 17 18 18 17 17 19 19 20 20 23 24 22 23 24 23 22 18 17 15 12 12 13 14 14 12 12 13 12 11 11 11 11 10 10 10 10 9 8 8 8 8 9 8 7 6 7 8 9 10 10 11 11 11 10 9 9 10 11
3 4 5 6 6 5 2 3 3 2 6 8 8 10 11 12 13 11 7 6 7 8 8 9 9 10 10 11 13 13 13 12 13 16 16 18 17 15 15 16 18 18 18 18 19 20 21 20 22 24 24 24 25 24 22 20 19 17 14 13 15 15 13 12 13 13 12 12 11 11 10 10 10 10 9 9 9 9 9 9 9 9 8 7 7 8 9 11 11 11 11 11 11 11 11 11 12
6 6 7 6 8 5 2 2 3 2 4 6 6 8 10 12 13 13 9 8 9 10 9 10 11 12 11 12 14 14 12 10 13 15 15 17 18 16 14 15 18 19 18 18 20 20 21 20 21 24 25 24 25 23 21 21 21 21 17 15 15 14 13 12 13 12 11 11 11 11 10 10 10 10 9 10 10 9 10 9 9 9 9 8 7 8 9 11 11 11 11 11 11 11 11 12 14
6 6 7 6 6 5 2 3 3 4 3 5 6 8 9 11 14 13 11 10 10 11 11 11 13 13 13 13 14 14 12 11 13 15 16 18 19 18 15 15 17 17 18 19 19 20 21 21 21 23 24 25 25 23 21 22 22 21 18 16 13 13 14 14 12 11 11 11 11 10 10 10 9 9 10 11 10 10 10 10 9 10 10 9 8 9 10 11 11 11 11 11 12 11 11 12 13
7 6 6 6 4 4 3 4 5 4 5 7 10 9 8 11 13 13 13 13 11 12 12 12 13 14 14 14 13 13 14 14 15 15 16 17 19 19 16 14 15 16 19 19 19 20 21 22 22 23 24 24 23 23 23 22 21 20 19 18 15 13 15 14 12 11 11 10 11 10 9 9 9 9 10 11 11 12 12 10 10 11 11 10 9 10 11 11 12 11 11 11 12 12 11 12 11
8 8 8 8 6 6 6 4 3 6 8 9 9 8 8 10 12 12 10 11 12 12 12 12 13 15 15 14 14 14 15 14 13 14 14 15 18 17 15 14 15 18 19 20 20 20 20 21 22 22 23 22 21 23 24 22 21 21 18 17 16 14 14 14 13 13 12 11 11 10 9 9 9 9 10 10 11 13 13 12 12 12 12 11 10 10 11 11 12 12 12 11 11 11 11 11 9
7 9 10 10 10 10 11 8 5 7 7 8 6 7 6 6 8 8 6 9 12 12 12 13 13 13 14 14 15 15 15 13 11 12 13 14 16 16 14 15 17 19 19 19 20 21 20 20 22 22 21 22 23 24 25 22 22 22 19 19 19 18 17 16 16 15 13 12 11 11 10 9 9 10 9 9 11 12 13 13 13 12 12 11 10 9 10 11 12 12 12 12 11 10 11 11 10
6 4 6 9 10 10 9 7 5 6 3 5 5 7 5 4 6 7 6 8 12 12 10 9 8 9 11 12 14 14 13 12 10 11 12 13 15 16 15 16 17 17 18 20 20 20 20 19 21 22 21 22 23 24 25 22 22 23 21 21 20 20 19 17 16 15 14 12 12 12 11 10 10 10 10 10 10 11 12 13 13 12 12 12 11 9 10 10 11 12 12 12 11 10 10 11 11
4 3 2 6 6 6 6 6 7 5 3 3 8 7 6 7 6 6 7 8 10 11 7 4 3 5 8 10 12 13 11 10 10 10 10 11 15 16 14 14 15 15 16 21 21 19 20 20 20 22 22 22 22 23 24 23 23 23 23 22 19 19 19 17 16 15 14 13 13 12 11 11 11 10 11 10 11 11 11 12 12 12 11 12 12 10 10 11 10 11 12 11 11 11 10 10 10
4 3 1 4 4 5 5 5 6 4 3 5 9 8 6 7 5 6 7 9 11 10 5 0 1 3 5 7 10 12 10 10 10 9 10 11 13 14 13 11 14 15 15 20 22 19 19 19 20 22 22 22 21 22 23 23 24 23 23 22 19 19 18 17 17 15 14 14 13 13 12 12 11 11 11 10 11 11 11 11 11 12 12 12 12 10 10 11 10 10 11 11 11 11 10 9 9
3 1 3 4 4 5 5 5 5 3 4 8 8 9 7 7 6 6 7 8 8 4 2 2 3 4 5 4 7 9 8 7 7 7 8 9 9 11 13 11 14 15 14 18 20 18 19 19 20 21 22 23 20 20 21 22 23 22 21 20 17 16 17 17 17 16 15 15 14 13 13 12 11 11 10 10 10 10 10 10 10 11 12 12 12 11 9 10 10 10 10 11 11 10 10 8 8
1 3 6 6 5 4 4 5 4 4 7 9 8 8 7 7 7 5 3 2 2 3 2 4 6 7 6 2 5 7 8 6 4 5 6 6 8 11 13 13 15 15 15 18 19 18 17 19 19 18 20 21 20 19 19 19 22 22 20 19 17 16 18 19 18 17 16 16 15 13 12 12 11 11 10 9 10 10 10 10 10 10 11 11 12 11 10 10 10 10 10 10 11 10 10 10 8
4 6 7 5 5 4 4 5 4 6 8 5 4 7 8 8 6 1 3 3 2 4 5 6 8 9 6 1 4 6 7 7 7 7 7 7 9 12 13 15 16 15 14 17 17 16 15 17 18 17 17 18 18 18 18 17 20 21 17 17 19 19 19 19 17 17 16 15 15 14 12 12 11 11 10 10 10 9 9 10 10 10 10 10 11 10 10 10 9 10 10 10 11 11 10 10 10
7 7 6 6 6 5 6 6 6 8 6 3 4 5 7 8 4 3 4 2 3 4 5 7 8 8 6 1 3 5 6 7 7 7 8 7 8 11 14 16 17 17 18 19 17 15 14 13 14 15 15 14 14 15 17 18 19 21 18 17 21 21 19 18 16 15 15 15 15 15 14 14 13 12 12 11 10 10 10 10 9 9 9 9 9 9 10 10 10 10 11 10 10 11 10 10 10
9 7 7 7 7 6 7 7 6 8 4 4 3 3 6 8 2 5 4 3 5 5 5 7 7 6 5 2 3 5 6 7 7 7 7 7 8 11 15 17 18 20 23 23 20 18 16 13 14 16 14 13 14 13 17 19 18 19 19 19 22 20 18 16 15 14 14 14 14 15 14 13 13 13 12 12 12 12 11 10 9 8 8 9 9 9 9 9 9 9 10 10 9 10 10 9 9
9 9 8 8 6 6 7 5 6 7 3 4 4 4 6 6 1 5 3 4 4 4 6 6 5 4 4 2 3 4 6 7 7 7 7 8 11 14 17 18 19 20 23 22 20 20 19 17 18 20 18 19 18 16 18 21 19 18 20 21 20 17 17 15 14 15 16 14 13 14 13 12 13 13 12 12 13 12 11 10 10 9 8 9 9 9 9 10 9 9 9 10 9 9 9 9 8
7 6 7 7 7 7 5 2 2 4 4 3 5 4 5 2 4 4 3 3 3 4 6 6 6 5 4 4 2 2 4 7 7 6 7 10 13 15 16 17 18 20 21 21 20 21 21 20 21 22 22 21 21 19 20 23 23 22 24 24 20 17 16 14 14 17 17 14 13 13 13 13 13 12 12 13 13 11 10 9 9 9 9 9 10 10 10 10 10 9 9 9 9 8 8 9 8
4 6 7 5 5 7 5 2 2 1 6 4 3 5 5 3 4 4 3 3 4 6 5 6 7 6 5 5 4 2 4 6 6 6 9 11 13 14 15 16 17 18 19 20 20 21 21 21 20 21 21 19 21 22 22 24 27 25 24 23 20 18 17 15 15 18 16 13 13 13 13 13 13 12 13 14 13 10 9 9 9 9 9 10 11 11 10 10 10 10 9 9 9 8 8 8 8
5 5 5 3 2 6 6 5 4 5 7 5 4 6 6 4 3 3 3 2 4 5 5 5 7 6 6 6 4 2 3 5 5 7 8 9 11 13 15 16 16 17 18 21 21 20 21 20 19 21 20 19 22 23 23 25 25 23 23 22 20 19 17 15 17 18 16 14 14 14 14 13 13 13 13 14 12 10 9 9 9 9 9 10 11 10 10 9 9 9 9 9 10 9 8 8 8
7 3 2 3 4 6 6 6 7 7 7 5 5 6 6 5 2 4 4 2 4 4 4 6 9 9 8 7 6 4 1 2 3 5 6 7 9 12 14 14 14 16 17 20 21 20 19 19 19 22 22 20 22 22 22 23 21 21 23 21 20 19 16 16 18 18 16 16 16 15 15 14 13 13 13 13 11 10 10 9 8 8 8 9 10 9 9 9 8 8 8 9 10 9 9 9 9
8 5 5 5 4 4 5 5 6 6 7 6 6 5 3 2 3 5 5 4 4 3 5 7 9 10 9 8 8 8 6 5 3 2 4 7 8 12 14 14 14 15 16 18 21 21 19 19 19 22 22 21 22 22 23 24 21 22 22 19 19 18 16 17 19 18 18 17 16 16 15 14 13 12 12 13 12 11 10 9 8 8 7 7 8 8 8 8 8 8 8 9 9 10 10 10 10
7 7 8 7 5 4 4 5 5 6 6 5 5 5 0 4 4 4 5 5 4 5 5 6 7 9 9 9 8 8 7 7 7 5 0 6 9 11 13 13 14 14 14 16 19 20 19 19 19 20 21 22 23 23 24 23 21 20 19 18 18 18 17 18 19 19 18 17 16 15 15 14 14 13 12 13 12 11 10 9 9 8 7 7 7 8 8 8 8 8 8 9 9 10 10 10 10
5 6 8 8 6 6 6 7 6 6 7 5 5 5 1 4 3 4 6 6 6 7 6 6 7 8 8 8 8 8 7 7 8 9 7 1 8 12 12 12 12 13 14 15 16 17 18 19 20 20 21 23 23 21 21 20 19 18 18 18 17 18 18 18 20 19 17 17 16 15 15 15 14 13 13 13 12 11 10 10 9 8 7 7 8 9 9 9 9 9 9 8 8 9 9 9 9
Wind_Direction
156 158 165 161 181 205 201 222 231 185 239 256 246 264 135 119 335 268 217 204 237 138 24 315 311 298 273 283 292 296 312 314 335 331 329 66 139 145 139 139 140 139 139 142 143 149 151 153 153 150 149 148 147 145 146 148 147 147 149 150 150 149 149 147 143 142 143 145 146 146 144 142 142 142 143 143 141 141 141 140 139 137 136 136 135 133 131 130 128 126 124 119 114 108 102 99 100
170 167 165 167 191 219 189 220 255 191 220 252 229 238 70 111 236 253 265 321 334 6 322 305 300 289 263 272 283 272 273 360 18 49 79 121 137 138 141 139 141 141 140 142 143 147 148 152 152 150 149 147 147 146 146 148 148 148 149 151 151 149 148 146 144 145 146 148 148 146 143 141 141 141 144 143 140 140 139 137 137 137 137 138 138 134 130 128 127 128 126 122 115 110 104 97 95
183 177 175 181 197 232 189 214 255 238 234 266 201 103 48 226 219 347 3 334 336 326 308 301 292 281 244 238 244 256 212 73 57 72 105 145 142 146 147 141 142 141 141 142 142 146 147 150 151 150 149 147 147 146 146 148 149 150 150 150 150 147 146 148 150 152 151 151 150 147 145 144 145 145 145 143 143 142 137 136 138 139 139 139 138 133 128 127 128 128 126 123 117 114 109 98 92
180 191 192 193 199 225 206 219 253 265 255 273 352 90 61 41 52 14 342 321 318 307 302 299 287 18 265 255 18 281 165 82 64 86 137 156 146 148 146 143 143 142 143 143 143 144 146 150 149 150 149 148 148 148 149 150 152 152 152 151 150 148 148 150 156 156 152 151 149 147 146 146 149 150 148 145 147 144 138 139 140 139 140 142 138 132 130 130 129 127 125 123 121 119 116 105 96
181 194 204 222 225 221 222 241 252 253 264 298 319 91 79 26 5 335 322 311 305 298 297 285 270 120 249 333 3 301 71 86 125 128 145 140 138 146 145 144 144 144 145 143 144 141 145 150 149 151 150 149 149 150 152 153 155 155 154 152 151 150 149 150 152 151 147 148 148 148 148 148 150 151 147 144 146 143 140 139 138 140 145 143 135 133 136 135 131 128 127 125 124 124 120 113 103
181 180 200 246 271 288 246 235 225 239 263 316 303 46 49 358 340 325 315 306 300 291 282 265 273 220 174 81 35 10 35 90 132 143 145 136 140 145 143 145 147 145 144 143 144 141 146 150 150 151 149 150 151 152 155 154 155 156 154 152 152 151 150 149 148 148 148 151 152 153 152 150 150 149 146 144 145 143 142 141 141 148 149 141 135 139 141 136 133 129 128 127 127 128 125 119 112
187 176 189 224 201 234 245 239 249 246 143 8 301 334 358 347 336 320 314 310 301 264 248 243 264 264 177 130 113 60 35 198 126 147 148 140 141 144 144 147 148 143 141 142 142 143 151 151 149 149 147 149 150 154 155 154 155 155 154 152 152 151 150 150 150 153 155 157 158 156 151 148 149 147 144 144 148 147 147 146 145 149 148 143 141 142 138 133 132 130 132 133 131 129 124 120 119
206 201 192 218 191 210 245 248 259 261 73 28 309 335 343 333 331 317 317 312 298 263 243 243 241 255 160 154 178 67 79 140 130 137 140 140 140 145 146 147 146 141 141 142 142 146 152 152 150 149 147 146 147 151 153 155 156 156 156 154 153 152 152 152 155 157 158 160 159 152 145 145 147 146 144 145 150 152 153 151 147 144 144 144 144 139 133 133 133 133 139 136 126 121 119 122 125
207 217 197 231 223 209 242 246 243 256 270 322 320 342 327 322 328 318 314 306 296 272 251 245 231 234 148 149 125 87 90 115 131 132 137 141 141 146 146 148 147 143 142 144 144 146 152 153 151 151 148 146 145 147 150 152 153 154 154 153 153 154 155 157 158 158 156 156 152 146 144 145 148 148 147 149 150 149 156 159 154 145 144 143 143 142 135 138 138 133 134 128 117 115 120 125 127
199 225 222 232 237 225 233 236 221 189 172 299 334 346 340 335 328 319 316 312 310 278 253 241 225 218 148 139 113 105 108 124 135 135 140 142 142 148 147 148 149 146 145 145 145 147 153 155 153 152 150 147 146 147 147 148 150 151 151 152 152 154 160 160 160 159 153 149 148 146 145 146 148 150 149 149 146 142 150 162 163 156 152 148 144 145 134 135 138 131 128 123 115 114 121 124 123
203 208 235 237 232 238 238 237 208 135 127 231 90 71 2 338 327 329 328 320 319 293 236 209 214 201 155 130 107 108 123 137 141 139 143 144 144 148 149 150 151 151 148 146 147 148 153 156 154 153 151 149 148 148 147 149 152 153 153 154 155 158 162 160 161 160 152 148 149 149 148 148 150 151 150 149 145 141 144 154 165 163 156 151 146 141 131 132 137 133 128 120 112 114 122 123 120
228 182 217 240 239 250 265 283 286 23 193 171 109 71 351 334 342 345 337 329 325 300 197 193 198 183 168 135 113 122 140 148 143 142 145 145 147 148 151 152 154 155 151 148 147 148 152 156 156 153 152 150 149 149 149 152 154 154 154 156 157 159 160 158 158 154 149 150 151 149 148 150 152 152 151 150 147 143 141 143 157 166 157 147 144 140 135 136 139 133 124 115 111 116 124 124 117
243 201 221 240 264 269 277 287 298 296 219 127 85 32 340 340 356 349 337 331 332 348 170 185 198 182 171 120 120 137 149 152 144 146 148 148 149 150 153 154 156 156 153 150 148 150 153 154 153 153 153 151 151 151 152 154 154 154 154 157 158 156 156 154 152 149 149 151 151 150 150 153 151 151 150 150 151 147 140 135 145 159 157 147 145 144 140 138 137 131 123 119 115 119 126 126 117
242 238 249 250 264 262 266 267 242 249 168 106 66 2 338 345 352 348 344 339 32 17 37 175 230 189 163 117 138 156 149 150 149 150 150 149 149 153 155 156 158 157 157 154 149 152 155 154 151 153 153 150 150 151 154 156 156 155 155 158 157 155 156 154 153 152 151 152 152 153 153 154 150 148 147 144 146 147 141 135 138 147 151 150 149 147 143 140 136 131 127 125 120 122 127 127 121
246 251 255 259 253 242 238 248 272 256 129 93 47 354 338 358 350 347 357 342 35 25 303 173 239 211 193 191 166 160 149 149 153 151 148 148 150 154 155 157 161 161 162 157 153 154 156 155 152 152 152 150 148 148 153 156 157 156 156 158 157 158 157 156 156 155 156 156 157 157 154 155 150 144 143 138 139 145 144 141 140 142 148 151 151 148 143 142 138 135 133 128 124 124 128 130 127
245 254 237 250 249 237 204 211 248 246 98 70 19 355 336 1 359 353 3 327 3 69 227 162 191 336 309 258 139 150 151 149 152 148 145 148 150 153 155 160 162 162 164 160 157 156 158 157 154 153 153 152 145 144 149 154 157 155 155 156 157 158 157 157 156 158 162 161 161 160 157 154 144 138 142 140 138 145 144 141 140 140 145 147 151 150 144 142 139 138 138 132 126 124 130 133 131
225 242 235 239 238 235 183 200 229 302 50 39 360 356 339 346 360 357 340 285 323 49 243 124 131 27 18 62 118 141 147 146 149 147 147 149 149 153 158 161 162 163 165 163 161 158 159 162 159 155 154 152 144 142 146 151 155 152 153 154 156 157 156 157 157 162 164 165 168 163 155 149 137 137 144 138 133 142 143 142 142 139 144 151 157 156 148 144 141 141 141 132 127 127 132 135 136
211 222 229 237 233 237 65 10 1 347 348 3 345 349 340 335 350 351 324 270 335 245 189 138 131 77 74 98 121 138 143 144 149 152 150 150 152 155 161 164 165 166 166 165 164 160 161 165 164 157 153 152 147 144 146 152 155 153 154 155 154 154 155 154 155 162 162 162 167 160 155 151 140 139 140 135 133 140 144 144 146 147 152 160 162 160 154 149 145 143 142 137 133 133 132 136 139
223 228 234 242 253 31 44 25 19 345 334 341 331 338 333 330 341 339 330 331 332 229 165 150 156 115 107 119 128 138 142 144 149 154 152 154 159 160 162 165 167 168 168 166 164 165 164 165 164 156 152 152 149 147 149 152 154 153 153 154 154 156 157 154 155 162 158 158 162 156 155 152 141 137 138 139 140 142 146 150 152 153 156 159 158 158 157 153 149 145 146 144 140 137 133 139 144
227 237 243 242 70 46 66 62 11 338 331 325 321 328 318 330 337 324 327 325 306 179 139 155 165 138 128 130 134 139 142 144 150 157 159 162 165 164 165 166 168 169 168 164 164 168 167 164 160 155 152 154 153 150 152 152 153 153 154 160 163 161 160 160 163 164 160 163 162 154 149 143 135 135 138 139 138 138 142 145 140 137 140 142 141 146 150 151 149 146 148 148 149 149 140 143 145
216 227 253 350 81 227 133 120 329 322 320 317 314 313 311 333 324 307 319 313 154 107 66 103 149 146 145 140 140 144 144 148 157 164 165 168 168 166 170 171 170 168 165 163 165 169 169 165 162 161 158 157 158 155 155 154 153 155 159 162 162 163 165 169 171 169 167 165 157 149 143 135 130 131 133 132 132 134 137 138 133 129 131 130 131 140 146 148 150 151 155 159 168 167 149 148 147
233 226 248 338 254 251 131 265 309 313 306 304 303 311 324 325 307 302 314 306 348 32 21 8 90 146 149 143 143 151 153 158 164 168 168 170 168 166 172 173 171 166 163 164 166 169 171 170 167 166 166 163 164 161 157 157 156 158 162 161 159 166 170 170 169 166 163 157 150 147 140 135 130 128 129 130 134 137 141 142 140 137 137 136 138 146 148 151 155 159 164 170 176 165 150 151 153
240 223 226 231 249 266 277 290 295 299 296 298 303 316 325 308 301 316 310 295 316 346 352 340 94 135 144 146 152 163 163 162 166 169 170 171 171 170 173 176 174 165 159 159 161 165 168 173 172 167 169 170 169 165 160 161 160 158 161 159 161 166 165 165 163 158 153 147 148 147 140 136 131 130 133 136 138 141 145 144 142 141 139 140 142 145 147 152 155 157 163 166 166 159 152 155 155
236 234 213 228 247 261 272 284 285 292 294 297 301 306 305 296 305 321 300 294 328 356 355 35 123 134 146 155 162 168 166 165 168 170 172 176 174 172 175 176 172 162 157 158 165 169 168 177 179 172 174 174 170 167 165 163 158 155 157 157 159 160 157 160 159 153 151 149 149 146 142 140 136 138 140 142 144 144 146 143 141 140 138 138 139 142 144 147 149 152 155 157 157 153 151 154 153
229 243 236 238 246 253 268 277 279 288 287 291 293 290 289 292 312 302 286 307 30 27 79 125 129 138 149 160 167 169 169 169 167 169 175 174 163 162 173 171 162 159 156 159 170 172 173 183 185 179 180 176 170 168 166 162 158 155 156 158 158 157 155 156 154 152 152 153 152 148 146 142 141 143 144 145 144 143 146 145 141 136 132 134 135 138 142 144 147 149 149 151 152 149 150 152 151
216 238 247 254 260 262 272 274 277 282 277 286 285 282 283 297 315 285 272 22 56 99 127 128 134 142 149 162 169 170 170 169 169 171 172 167 161 170 177 170 163 161 153 153 166 173 179 188 188 185 184 177 171 168 164 161 159 160 158 158 158 157 157 154 152 154 154 156 155 152 150 147 146 145 145 144 141 145 149 145 138 132 132 134 136 137 142 146 145 145 146 146 147 146 147 149 152
183 241 259 265 269 271 272 273 276 278 274 270 271 279 282 291 292 257 111 66 80 135 128 135 141 144 153 165 169 168 169 172 173 173 172 172 178 180 177 173 164 155 150 157 169 183 190 195 194 191 186 176 170 166 161 160 161 162 160 157 159 159 156 154 155 157 158 158 156 154 151 149 148 147 147 144 143 147 148 144 137 136 139 138 140 142 146 149 144 140 139 137 139 142 144 148 153
254 256 268 258 260 260 253 259 267 267 267 259 262 276 273 264 258 250 43 58 126 146 138 141 144 147 156 166 168 166 171 176 178 181 184 185 187 184 179 178 169 160 169 179 185 189 190 197 200 194 185 175 168 165 161 161 162 163 164 161 162 159 156 159 161 160 160 159 157 154 152 151 150 151 150 147 148 150 148 147 144 143 144 139 143 149 151 150 143 138 132 130 133 135 140 146 152
255 257 268 255 251 251 236 243 263 258 264 266 266 270 251 231 236 240 44 68 168 167 155 144 149 154 159 168 169 172 178 181 185 192 195 195 194 190 186 183 176 171 179 190 193 189 186 194 199 194 186 176 167 165 161 160 163 164 168 165 162 159 158 164 164 162 160 158 157 155 153 153 153 154 154 152 152 152 153 152 150 149 147 146 151 154 156 155 148 140 134 131 133 135 137 140 146
251 236 255 264 250 236 190 202 251 240 248 259 249 259 234 203 213 225 62 157 191 180 167 154 160 162 166 173 173 181 186 187 192 200 202 202 200 194 191 188 179 171 175 189 198 196 188 189 193 191 188 178 167 165 161 159 164 166 169 165 162 163 162 166 165 162 159 157 159 158 155 155 156 157 158 158 156 153 155 154 153 152 152 153 156 160 162 161 153 144 139 135 135 137 134 137 144
241 228 231 249 251 176 125 142 240 219 147 192 229 245 241 185 166 116 54 181 198 193 178 164 171 174 176 179 182 190 194 196 198 202 204 203 202 198 195 192 177 162 163 183 198 207 190 183 187 190 188 175 164 164 163 162 166 167 170 165 165 167 164 166 164 161 160 159 162 160 159 159 158 160 161 161 160 156 157 158 155 152 155 157 161 170 167 160 153 147 143 140 138 138 133 135 142
219 240 219 210 233 156 137 159 235 288 104 176 226 244 247 195 135 99 69 154 203 208 186 171 182 186 186 186 190 196 199 203 204 205 207 204 205 200 193 191 177 163 160 171 178 190 184 178 181 184 184 177 169 168 168 168 169 167 168 168 170 169 166 166 163 162 163 163 164 163 163 163 162 163 165 165 162 160 159 158 154 153 158 160 165 172 164 154 147 141 140 140 138 134 132 133 136
206 234 242 199 214 206 160 157 151 313 77 183 229 264 264 191 132 122 92 181 212 212 193 183 192 196 197 195 194 201 202 205 208 207 205 205 208 201 190 186 175 164 164 169 170 176 178 177 180 178 176 176 173 174 174 174 173 168 168 172 174 172 168 167 165 165 167 166 167 165 165 166 167 167 167 165 161 158 157 154 153 154 158 161 165 169 162 151 143 136 132 133 134 132 133 134 136
197 212 244 228 229 249 190 150 146 200 260 222 233 257 270 265 202 186 192 221 223 220 201 188 197 205 206 203 200 205 207 206 210 209 204 205 206 200 190 182 173 163 162 171 174 177 174 171 178 177 174 176 175 176 181 182 177 173 173 175 177 175 170 168 167 166 168 170 170 170 169 170 171 171 169 167 163 158 153 151 153 156 157 162 167 168 159 146 139 134 128 127 131 134 137 138 139
215 202 232 232 222 234 231 179 134 202 261 256 251 246 255 262 250 218 205 224 233 227 210 200 204 209 211 211 208 208 211 210 211 212 207 204 205 202 193 181 172 162 158 171 177 178 173 168 174 174 172 179 180 179 183 186 180 174 174 178 177 176 173 166 166 168 169 173 176 174 173 174 173 173 173 169 164 159 154 152 154 157 159 165 171 170 159 145 138 136 131 129 133 138 142 143 142
263 219 250 255 229 227 226 214 189 294 275 261 256 256 255 258 256 233 201 205 238 234 216 215 211 212 215 215 215 213 214 214 211 213 212 207 205 204 197 186 177 167 163 172 176 175 175 174 175 175 176 180 181 182 185 186 182 173 174 180 176 176 176 169 166 170 171 175 177 175 176 176 175 175 173 170 166 162 159 155 156 161 166 170 175 174 164 151 143 140 136 134 137 139 142 145 144
280 263 258 258 255 251 164 180 242 274 277 266 254 261 263 262 262 251 216 194 232 239 224 223 221 219 218 217 220 217 213 212 211 214 215 211 207 202 196 188 181 174 171 175 176 176 178 175 174 178 182 183 181 183 187 189 185 179 179 182 177 175 175 170 169 172 173 175 174 175 178 178 176 174 172 173 173 168 163 158 159 166 173 177 179 176 166 153 145 142 139 142 146 144 144 149 147
260 262 261 256 257 258 156 195 253 211 251 265 258 262 262 261 262 256 237 214 231 241 234 229 227 225 223 219 222 221 213 204 208 213 214 214 211 203 194 184 180 177 175 178 179 177 175 171 175 181 181 182 184 185 188 191 191 187 184 183 180 174 173 173 173 172 172 172 171 175 179 177 175 174 175 179 178 174 168 165 166 170 175 177 174 172 164 152 146 145 146 151 153 149 149 156 155
249 250 260 259 263 274 229 199 197 183 233 279 281 275 268 266 264 258 245 232 235 241 241 237 229 228 228 222 221 221 214 200 203 209 209 212 211 205 197 183 177 174 173 180 183 178 174 171 176 184 183 182 185 185 187 193 194 190 186 184 176 170 177 179 173 170 168 169 172 176 179 176 174 177 180 180 179 178 174 170 169 170 174 174 169 171 167 157 152 151 154 157 155 153 153 160 168
237 242 252 251 257 275 244 174 170 206 260 284 287 284 275 268 259 252 245 238 241 239 239 241 233 231 231 227 225 221 216 206 201 203 205 208 207 204 200 185 171 169 172 180 186 180 176 176 176 182 188 188 188 189 192 195 194 191 189 185 175 171 180 177 169 167 167 169 172 174 176 173 171 177 180 178 178 178 174 172 169 168 173 174 171 174 173 167 161 160 162 164 160 157 157 161 177
234 237 249 261 268 271 269 258 255 270 257 248 265 273 260 252 244 240 228 219 232 232 228 232 231 233 232 229 227 223 221 213 200 199 201 206 205 197 195 187 172 174 177 180 186 183 180 181 178 181 188 192 193 194 195 194 189 188 188 185 179 174 174 172 171 169 168 172 170 168 170 171 174 178 179 176 174 173 173 172 169 169 172 175 176 177 177 173 169 167 166 169 169 163 161 163 174
245 226 235 258 269 270 272 272 270 276 250 204 228 265 253 232 235 232 197 194 217 218 218 225 226 230 231 229 225 222 222 214 200 198 201 209 207 190 184 185 177 178 179 178 183 186 186 185 180 178 183 192 196 196 195 193 190 187 185 185 181 173 172 177 176 169 169 172 167 166 168 171 178 179 179 177 171 171 172 170 169 171 172 176 181 180 179 178 175 172 169 171 175 171 166 166 170
256 211 223 246 257 264 269 263 236 260 275 156 202 266 272 242 221 203 186 200 212 207 211 228 232 234 236 234 230 224 218 211 202 201 203 208 207 193 181 182 180 175 176 178 181 186 188 188 184 178 180 188 195 195 192 190 190 188 186 186 181 174 175 178 175 168 166 166 161 164 166 170 178 180 179 177 172 172 171 168 168 170 173 179 183 182 180 182 179 175 173 174 175 175 175 173 171
259 100 214 240 246 259 257 245 231 258 314 179 210 245 268 264 233 188 194 218 220 207 200 222 250 258 254 249 241 230 217 209 205 203 201 203 208 199 179 175 179 170 170 178 180 186 189 189 187 183 182 186 192 193 189 189 191 188 185 184 183 184 181 172 168 166 161 159 158 161 166 170 175 178 179 176 174 173 171 170 169 168 175 180 182 184 183 184 181 174 175 178 175 176 182 182 176
258 96 235 261 268 271 258 239 233 248 282 235 214 214 242 260 227 176 196 226 227 204 173 125 337 316 286 266 249 231 213 209 208 200 196 200 206 190 159 161 177 167 167 176 178 185 190 191 191 188 189 190 191 190 188 192 192 185 183 184 186 189 179 163 162 161 157 159 160 163 168 170 170 173 176 174 174 174 172 173 171 172 176 178 181 186 185 185 183 176 176 179 179 180 185 187 180
264 158 240 258 258 260 249 242 239 216 240 253 223 199 233 261 228 196 201 226 235 200 122 22 11 352 319 277 248 225 201 201 206 198 195 193 191 163 139 148 164 162 171 175 177 185 187 190 191 190 194 194 191 189 188 192 189 184 187 188 189 186 170 159 160 159 159 161 162 167 169 166 166 169 170 172 174 174 174 174 176 178 177 178 182 183 183 184 185 182 180 180 181 182 186 192 189
252 227 232 230 221 225 226 233 244 223 231 248 231 203 231 263 249 229 190 200 303 339 349 356 4 350 338 287 230 206 185 172 159 169 171 157 146 133 133 147 153 161 172 168 173 185 186 189 189 187 193 194 191 189 186 187 188 190 191 185 189 187 169 162 163 161 162 162 162 166 166 163 165 167 168 173 173 173 174 174 176 178 176 181 184 182 182 184 184 184 183 184 185 185 186 191 196
223 236 236 228 209 203 217 207 209 239 241 235 213 205 224 251 259 220 101 91 8 343 334 349 353 346 347 315 195 178 171 159 142 143 137 127 124 126 140 151 150 155 153 150 167 182 185 190 191 190 191 190 189 186 183 183 185 189 187 182 190 189 171 165 164 161 160 161 163 164 162 162 165 168 169 171 170 170 174 174 174 175 177 184 186 183 183 183 184 185 183 185 188 190 191 190 195
218 229 230 233 218 198 220 215 203 235 235 139 150 201 227 250 260 98 102 75 26 8 354 356 348 340 346 356 162 159 162 159 157 155 145 139 135 138 152 153 149 148 141 144 167 182 183 187 191 194 195 194 190 181 179 184 185 182 177 185 198 191 173 166 163 160 159 159 162 163 164 164 167 170 169 169 170 170 173 174 174 175 175 179 183 183 180 179 183 184 183 185 188 191 194 193 195
210 221 219 229 230 217 228 226 221 235 217 130 158 220 248 250 233 81 73 42 32 19 16 10 347 336 344 7 138 155 163 161 166 166 158 158 152 153 158 156 157 157 152 155 169 177 177 175 180 186 187 192 191 179 177 184 188 183 177 192 205 190 172 167 161 158 158 158 162 165 167 168 168 171 169 168 169 169 170 171 172 175 173 173 177 180 178 175 179 183 183 186 190 193 196 198 198
205 219 229 238 242 240 245 245 246 248 220 152 170 209 257 254 132 79 73 66 47 28 36 25 360 1 3 11 118 153 166 155 148 151 156 163 164 163 163 163 165 163 158 160 167 171 171 170 176 182 182 182 181 177 181 184 186 185 183 196 205 189 173 168 160 159 158 155 159 164 167 168 166 166 165 163 164 164 166 167 169 172 172 173 174 177 179 176 175 178 182 187 192 195 196 199 199
198 210 231 242 246 245 254 280 301 295 267 205 182 220 269 250 136 123 124 108 73 46 46 38 27 34 32 26 51 129 149 140 134 141 153 162 167 166 165 166 164 160 159 160 164 170 171 171 176 185 189 183 173 175 185 185 184 186 187 191 197 188 175 165 160 164 161 153 158 162 162 162 160 158 158 159 160 161 161 165 172 176 176 176 176 176 180 178 173 174 181 186 190 195 196 196 197
180 205 225 228 251 258 256 224 144 267 268 246 200 241 256 204 163 139 140 146 94 59 44 46 43 44 56 50 24 38 116 137 149 159 167 173 174 169 166 167 164 166 166 162 164 171 174 173 175 185 190 180 171 176 184 183 182 184 185 189 194 188 174 164 163 163 157 153 158 158 156 154 152 152 155 160 162 160 161 166 172 176 176 178 177 176 177 175 172 173 180 186 189 192 193 193 197
197 208 222 200 239 255 252 244 222 228 252 244 214 245 256 244 218 137 151 161 88 60 40 53 52 43 59 72 59 69 136 174 176 167 177 184 181 174 171 171 169 173 173 166 165 169 170 172 178 185 186 177 176 179 183 184 180 177 181 190 194 185 171 165 164 160 155 155 157 155 153 152 152 154 157 161 163 161 162 164 167 170 173 174 177 178 179 179 178 177 178 183 187 188 188 188 190
234 260 267 228 236 231 219 234 245 243 252 252 234 241 253 260 242 130 142 98 60 47 37 49 49 38 34 43 46 50 87 218 202 181 181 175 173 171 170 173 173 178 181 172 163 163 169 174 182 190 187 181 182 179 181 189 182 173 181 190 188 179 168 162 160 159 158 158 158 156 157 157 156 159 161 162 162 161 161 162 162 165 167 172 177 181 184 185 185 182 180 182 183 185 187 186 185
227 253 249 237 253 254 227 228 242 248 254 255 247 238 238 304 30 78 86 64 39 24 43 47 42 37 28 22 22 21 18 5 342 248 183 165 174 176 172 172 173 182 193 179 161 159 170 175 182 191 188 183 185 178 179 188 184 176 182 184 177 173 169 162 160 161 162 162 162 161 160 161 160 160 162 163 162 160 161 163 163 163 166 172 179 183 187 187 183 182 184 183 183 187 191 188 184
207 220 224 222 225 238 246 246 244 255 262 255 254 252 183 45 27 49 65 60 32 20 48 58 45 40 37 30 22 17 17 14 5 354 238 169 173 176 174 174 178 187 197 186 167 160 165 172 180 187 182 177 181 179 177 181 179 176 177 176 173 172 169 164 163 165 165 164 164 164 163 162 159 159 161 162 161 159 160 163 162 163 166 173 180 184 185 185 182 179 180 181 183 191 195 190 185
238 233 229 227 228 229 236 240 232 243 262 265 269 268 101 67 15 40 61 58 44 32 44 61 52 42 38 33 28 25 19 11 10 5 352 248 176 175 179 184 189 189 188 187 178 162 159 168 176 180 178 178 181 180 176 175 174 174 175 172 171 170 168 166 166 168 168 165 164 164 164 161 158 159 160 161 162 160 159 161 160 161 162 169 179 182 182 183 183 178 175 178 185 191 191 186 182
Height
791 792 791 791 791 791 789 786 792 789 787 790 779 774 772 769 771 773 774 771 771 768 764 765 763 763 768 769 767 764 763 766 768 773 779 777 773 774 775 776 777 780 783 786 788 790 792 794 794 795 796 797 798 800 801 803 804 806 808 809 810 812 813 815 817 818 819 820 822 823 824 825 826 826 827 828 829 829 830 831 831 832 832 832 833 833 833 834 834 835 835 836 836 836 836 836 836
792 792 791 792 790 791 787 785 793 789 789 790 774 771 770 769 774 774 773 772 770 766 762 762 760 761 762 763 763 765 766 764 764 769 775 775 774 776 776 778 779 781 784 787 789 791 794 795 795 796 797 798 799 800 802 804 805 807 808 810 811 813 814 816 818 819 820 821 822 824 825 826 827 827 828 829 830 830 831 832 832 833 834 834 834 834 834 835 835 836 837 837 837 838 838 837 837
793 793 792 793 789 788 785 788 792 788 791 786 771 768 770 772 774 772 771 770 768 764 763 762 760 760 762 766 765 767 769 764 764 768 773 775 775 777 778 780 781 783 785 788 790 792 795 795 796 797 798 799 800 801 803 805 806 807 809 811 812 814 815 817 818 819 820 822 823 824 825 827 828 828 829 830 831 831 832 833 834 834 835 835 835 835 836 836 837 837 838 838 839 839 839 839 839
793 792 792 789 788 788 787 791 788 787 789 780 773 772 771 773 772 772 770 768 765 764 764 763 762 759 761 768 765 765 767 765 766 769 774 775 774 777 779 780 782 784 786 789 791 793 795 796 797 797 798 800 801 802 804 805 807 808 810 811 813 815 816 818 819 820 821 822 824 825 826 827 828 829 830 831 831 832 833 834 834 836 836 836 836 837 837 837 838 838 839 839 840 840 841 841 840
793 792 791 787 788 787 786 789 786 787 784 774 773 772 772 772 773 774 770 766 764 764 764 763 765 759 759 765 764 766 768 768 769 769 772 774 775 778 779 781 783 785 787 790 792 794 796 797 798 798 799 800 801 803 805 806 807 809 811 812 814 815 817 818 820 821 822 823 824 825 827 828 829 830 830 831 832 832 834 835 836 837 837 837 837 838 838 838 839 839 840 840 841 841 842 842 842
792 791 790 786 786 784 786 791 787 785 774 769 774 770 770 772 773 774 769 765 761 761 762 762 763 760 763 764 763 766 768 770 771 770 773 775 777 779 781 783 785 786 788 790 793 795 796 797 799 799 800 801 802 804 805 807 808 810 811 813 814 816 818 819 820 822 823 824 825 826 827 828 829 830 831 832 833 833 834 835 837 838 838 838 838 839 839 839 840 840 841 841 842 842 842 842 843
790 790 789 788 786 785 790 790 783 779 769 769 775 771 771 772 771 772 769 767 763 761 760 760 759 761 767 765 765 768 769 770 770 772 774 776 778 780 782 784 786 788 789 791 794 796 797 798 799 800 800 801 803 805 806 808 809 811 812 814 815 817 818 820 821 822 823 824 825 826 827 829 830 831 832 833 833 834 835 836 837 838 839 839 839 840 840 841 841 842 842 842 843 843 843 843 843
789 787 786 788 790 789 789 786 779 774 770 770 772 773 774 773 771 771 770 769 766 763 761 759 757 765 767 761 766 770 770 770 770 773 775 777 780 781 783 785 787 788 790 792 795 797 798 799 800 801 801 803 804 806 807 809 810 812 814 815 816 818 819 821 822 823 824 825 825 827 828 830 831 832 832 833 834 834 835 836 837 838 839 840 840 841 841 842 843 843 843 843 844 844 844 843 844
788 786 786 788 789 790 787 783 777 771 771 771 772 773 774 771 769 770 769 766 764 762 762 758 757 765 764 762 769 770 770 772 772 775 776 778 780 782 784 785 787 789 791 793 795 798 799 800 801 802 802 804 805 807 808 810 811 813 815 816 818 819 820 822 823 824 824 825 827 828 829 831 832 833 833 833 834 835 836 837 838 839 839 840 841 842 842 843 844 845 845 845 845 845 845 844 845
786 785 787 788 787 790 787 779 774 771 772 771 772 773 772 770 768 768 767 765 761 761 760 755 758 761 761 765 770 770 772 773 773 776 777 779 781 783 784 786 788 789 792 794 796 798 800 801 802 803 804 805 806 808 809 811 813 814 816 817 819 820 821 823 824 825 825 827 828 829 831 832 833 833 834 834 835 836 837 838 839 840 840 841 842 843 843 844 845 845 846 846 846 846 846 846 845
787 785 784 788 788 787 782 774 770 769 770 770 771 771 770 768 768 766 765 764 760 761 759 757 761 759 760 767 770 772 773 774 774 776 778 780 781 784 785 787 789 790 792 794 797 798 800 802 803 804 805 806 808 809 811 812 814 815 817 818 820 821 822 824 825 826 827 828 829 830 831 832 833 834 835 835 836 836 837 838 839 840 841 842 843 843 844 845 846 846 846 847 847 847 847 847 847
787 785 785 788 785 779 775 773 771 770 769 770 772 771 769 766 768 768 766 764 760 761 759 758 757 754 764 771 770 773 774 774 775 777 779 780 782 784 786 787 790 791 793 795 797 799 801 803 804 805 806 807 809 810 812 813 815 817 818 819 821 822 824 825 826 827 828 829 830 831 832 833 834 834 835 836 837 837 838 839 840 841 842 843 844 844 845 846 846 847 847 848 848 848 848 848 848
785 782 785 786 778 775 775 775 774 774 771 770 773 771 768 767 769 768 766 763 760 763 759 755 752 752 765 770 771 774 773 775 775 778 779 780 782 784 786 788 790 792 794 795 797 799 801 803 805 807 807 809 810 811 813 814 816 818 819 821 822 824 825 826 827 828 828 830 831 832 832 833 834 835 836 837 838 838 839 840 841 842 843 844 844 845 846 846 847 848 848 848 849 849 849 850 850
782 779 782 782 776 776 776 775 774 775 773 770 773 771 767 767 768 764 764 765 763 763 757 752 750 756 765 769 775 774 772 775 776 778 779 781 783 784 787 788 791 792 794 796 797 799 801 804 806 807 808 810 811 812 814 815 817 819 820 822 823 824 825 826 827 828 829 830 831 832 833 834 835 836 837 838 839 839 840 841 841 842 843 844 845 846 846 847 848 848 849 849 849 849 850 851 851
781 778 782 783 778 776 775 776 774 774 773 770 772 770 767 765 763 763 764 767 765 758 755 753 751 761 769 770 773 770 771 775 776 778 779 781 783 785 787 788 791 793 795 796 798 800 802 804 806 808 809 810 811 813 815 816 818 819 821 823 824 825 826 827 828 829 830 831 832 832 833 834 836 837 838 839 839 840 841 842 842 843 844 845 846 846 847 848 848 849 849 849 850 850 850 851 852
780 779 784 785 780 777 774 774 775 776 773 770 769 768 770 764 759 763 763 763 763 756 755 757 754 761 766 763 763 763 770 775 776 779 779 782 784 786 788 789 792 793 795 797 799 801 802 805 806 808 809 810 812 814 816 818 819 820 822 823 824 825 827 828 829 830 830 831 832 833 834 835 837 838 839 840 840 841 842 843 843 844 844 845 846 846 847 848 849 849 849 850 851 851 851 852 853
781 783 787 785 780 776 772 772 774 776 773 770 769 768 773 768 760 760 757 757 761 759 758 758 756 759 761 758 758 763 772 775 777 779 779 782 784 786 788 789 792 793 796 797 799 801 803 805 806 808 809 811 812 814 816 818 820 821 823 824 825 826 827 829 829 830 831 832 833 833 835 836 837 839 840 840 841 842 843 844 844 845 845 845 846 847 848 848 849 850 850 851 852 852 852 853 854
784 785 787 783 776 772 771 772 773 775 774 774 772 770 773 772 765 759 756 757 759 760 760 759 759 759 760 760 762 767 773 775 777 778 779 782 784 786 788 789 791 793 796 798 800 802 803 805 806 808 809 811 813 814 817 818 820 822 823 824 826 827 828 829 830 830 831 832 833 834 835 836 838 839 840 841 842 843 844 844 845 845 845 845 846 847 848 849 849 850 851 851 852 852 852 853 855
784 782 784 778 771 772 772 774 775 776 777 776 773 770 771 770 766 761 762 761 758 761 761 760 763 763 761 762 766 771 773 776 778 778 779 782 783 785 786 789 791 794 796 798 801 802 803 805 807 808 810 812 813 815 817 818 820 822 824 825 826 827 828 829 830 831 832 832 833 833 835 836 837 840 841 842 842 843 844 845 845 845 845 845 846 847 848 849 850 850 851 852 853 853 853 855 856
781 780 783 774 771 775 774 775 777 776 776 777 774 771 770 767 764 762 764 762 757 760 760 760 765 765 764 764 769 773 774 777 778 778 779 780 782 784 786 788 791 793 796 798 801 803 804 806 808 809 810 812 814 815 817 819 820 822 824 825 826 827 828 829 831 831 832 832 832 833 834 835 837 839 841 842 842 843 844 845 846 846 846 846 846 847 848 849 850 851 852 852 853 853 854 856 857
779 780 780 773 774 777 775 776 776 775 775 776 775 772 770 765 762 762 764 763 758 758 757 757 760 762 763 765 769 773 774 776 777 778 778 779 781 783 786 787 790 792 794 798 801 803 805 807 808 809 811 812 814 815 817 818 820 822 823 824 825 826 828 829 830 830 831 832 833 834 835 836 837 839 841 842 843 844 845 846 847 847 847 847 848 849 849 850 851 852 852 853 853 854 855 856 857
780 780 777 775 777 777 775 775 775 775 774 775 775 773 771 765 763 761 763 766 759 754 754 754 755 758 761 764 769 772 773 774 775 777 778 779 780 782 785 787 789 791 794 797 800 803 805 807 808 809 810 812 814 815 816 818 819 821 822 823 825 827 828 828 829 830 830 831 833 834 835 836 837 839 840 842 843 844 846 847 847 848 848 848 848 849 850 850 851 852 852 853 853 854 855 856 857
782 778 774 776 777 777 775 774 774 774 775 776 774 771 769 769 766 760 761 763 755 750 752 752 752 755 760 764 769 771 772 773 774 776 777 779 780 782 785 786 788 790 792 795 798 802 804 807 809 809 810 812 813 814 816 817 818 821 822 823 825 826 827 828 829 829 830 831 833 834 835 836 837 839 840 841 843 844 846 846 847 847 848 848 848 849 850 850 851 851 852 853 853 854 855 856 857
782 777 775 777 776 777 775 773 774 773 775 775 771 771 771 771 767 761 761 757 751 751 751 751 752 755 760 764 768 770 771 773 774 776 778 779 780 782 784 786 789 790 792 794 795 798 802 806 808 809 811 811 812 814 815 817 818 820 822 823 825 826 827 827 828 829 831 832 833 834 835 836 837 839 840 842 843 844 846 846 847 847 848 848 848 849 850 850 851 851 852 852 852 853 854 855 856
782 778 775 775 775 775 773 773 773 773 773 771 771 773 771 767 765 764 760 753 751 753 752 751 754 757 761 765 769 770 772 773 775 777 778 780 782 784 785 787 789 791 793 794 794 795 800 804 806 808 810 811 812 813 815 816 818 820 822 823 824 825 826 827 828 829 831 832 832 834 835 837 838 839 840 842 843 844 846 846 847 847 848 848 849 849 850 850 851 851 851 851 852 853 854 855 856
777 776 775 775 775 773 772 773 773 772 771 770 773 773 768 763 765 764 756 754 754 753 754 754 757 761 763 767 769 770 772 774 775 777 779 781 784 785 786 788 789 791 793 795 797 798 799 803 806 808 809 811 812 814 816 817 819 821 822 823 824 826 827 828 829 830 831 832 833 834 835 837 838 839 841 842 843 845 846 846 847 847 848 849 849 850 850 850 851 851 851 851 852 853 854 855 857
774 775 775 775 775 773 773 773 772 771 770 770 773 773 767 762 767 765 754 754 755 754 757 757 758 763 765 768 770 771 774 774 776 777 779 782 784 785 786 788 789 791 793 794 795 797 800 804 806 808 809 811 813 814 816 817 819 821 822 824 825 826 827 829 830 831 831 832 833 834 835 837 838 839 841 842 843 845 846 846 847 848 848 849 849 850 850 851 851 851 851 851 852 853 854 855 857
774 776 777 775 773 772 772 773 771 770 769 767 768 771 767 764 767 763 754 754 755 756 759 759 760 763 765 769 771 773 774 774 776 776 778 780 780 782 784 786 787 789 791 791 790 791 795 801 805 807 809 810 812 814 816 818 820 821 823 824 825 826 828 829 831 831 832 832 833 834 836 837 838 839 840 842 843 844 845 846 847 848 848 849 850 850 850 851 851 851 851 852 853 853 854 856 857
775 776 778 774 771 772 769 770 769 769 769 764 766 773 769 765 764 756 753 755 755 757 759 760 762 762 765 768 771 773 773 774 775 775 776 777 778 780 782 784 786 786 788 789 790 790 790 797 803 806 808 809 811 814 816 819 820 821 823 824 825 826 827 830 831 832 832 833 833 834 836 837 838 839 840 841 843 844 845 845 846 847 848 849 849 850 851 851 851 851 852 852 853 854 855 857 858
776 775 777 775 772 770 766 768 769 769 770 764 769 778 767 757 757 751 753 756 756 759 759 761 762 762 764 767 770 772 772 772 773 773 774 775 777 779 780 782 784 786 788 789 792 793 792 795 802 805 807 809 811 813 816 818 820 821 823 824 825 826 827 829 831 832 832 833 833 834 836 837 838 839 840 841 842 843 844 845 846 847 848 848 849 850 851 851 852 852 852 853 854 854 856 858 859
775 775 776 775 775 770 765 768 768 768 768 763 770 778 764 752 753 753 754 756 757 759 759 760 762 762 763 764 769 771 771 771 771 771 771 772 775 777 779 781 783 786 788 790 792 794 796 798 802 804 807 810 812 813 815 818 820 821 823 824 825 826 827 829 830 831 832 833 834 835 836 837 838 839 840 841 842 843 844 845 846 846 847 848 849 850 851 852 852 852 852 853 854 855 856 858 860
774 778 776 771 773 769 766 767 767 769 767 763 769 775 761 751 753 754 754 756 758 759 758 760 762 761 761 762 766 770 770 769 769 769 769 771 774 775 778 780 783 785 787 790 792 795 799 801 803 804 807 809 811 813 815 817 819 821 822 824 825 826 827 829 830 831 832 833 834 835 836 837 838 839 840 840 841 842 843 844 845 846 846 848 849 850 851 851 852 852 853 853 854 855 857 859 860
773 777 774 769 772 769 766 767 765 767 767 765 768 770 761 752 753 754 754 756 758 759 759 760 762 760 760 761 764 768 770 769 768 766 767 770 772 774 777 779 782 784 787 789 792 795 798 801 803 805 807 808 810 813 815 816 818 820 821 823 825 826 827 828 830 831 832 833 834 835 835 836 838 839 839 840 841 842 843 844 844 845 846 848 849 849 850 851 851 852 853 854 855 856 857 859 860
772 774 773 770 771 770 769 769 766 766 768 768 768 769 764 756 753 753 754 755 757 758 759 760 761 760 758 759 761 765 768 769 767 764 765 768 771 774 776 779 782 784 786 789 792 794 797 799 802 805 807 808 810 812 815 816 818 820 821 822 824 825 827 828 829 830 831 832 833 835 835 836 837 838 839 840 840 842 843 844 844 845 846 847 849 849 850 850 851 852 852 854 855 856 857 858 860
769 772 773 770 769 772 771 769 766 767 769 769 768 768 765 757 752 752 752 754 756 757 757 758 759 759 758 757 759 762 765 767 766 764 765 767 770 774 776 779 782 783 786 789 791 793 796 798 801 804 807 808 810 812 814 815 817 819 820 822 823 824 826 827 828 830 831 832 833 834 835 836 837 838 839 839 840 841 843 844 844 844 846 847 848 849 850 850 851 851 852 854 855 856 858 859 860
769 769 771 770 769 769 767 768 766 766 771 770 768 767 762 757 753 750 751 753 756 756 756 757 756 756 756 756 757 759 762 765 765 764 765 767 770 773 776 778 781 783 786 789 790 792 795 798 801 804 806 808 810 812 814 815 816 818 820 821 822 824 825 826 828 829 830 831 832 834 835 835 836 838 838 839 840 841 842 843 844 844 846 847 848 849 849 850 850 851 852 854 855 856 858 859 860
773 772 772 770 770 766 764 769 766 765 773 769 764 765 761 758 754 749 749 753 756 756 756 757 755 755 755 755 755 754 758 761 762 764 764 766 769 773 776 778 780 783 785 788 789 791 793 796 800 802 804 807 808 811 813 814 815 817 819 820 821 823 825 826 828 829 830 831 831 833 834 835 836 837 838 839 840 841 842 843 843 844 846 847 848 848 849 850 850 851 852 854 855 856 858 859 860
776 775 773 770 768 763 762 769 766 764 773 768 760 764 763 757 754 749 747 753 756 754 755 756 754 753 752 751 752 750 752 757 760 762 764 765 768 772 775 777 779 782 784 787 788 790 792 795 798 799 802 804 806 809 811 812 814 816 817 819 821 822 824 826 827 828 829 830 831 832 833 834 836 837 838 839 840 840 841 842 843 844 845 847 848 848 849 849 850 851 852 854 855 856 857 858 859
778 776 774 773 766 761 763 766 766 766 771 767 761 764 763 755 752 748 747 750 751 749 749 751 750 751 749 748 748 748 750 754 757 760 762 764 767 770 774 776 778 781 783 786 788 789 791 794 796 797 799 801 804 807 809 811 813 815 817 819 820 822 824 825 827 828 829 829 830 831 832 833 835 837 838 839 839 840 841 842 843 843 845 846 847 848 849 849 850 851 852 853 854 856 857 858 859
778 775 776 773 764 767 771 767 766 766 768 768 765 766 763 754 750 747 745 745 745 745 745 745 745 746 746 744 744 746 748 751 754 757 760 762 765 768 772 775 777 780 783 785 787 789 790 792 794 796 797 800 803 806 807 810 813 815 817 818 820 821 823 825 827 829 829 829 830 830 831 832 834 836 837 838 839 839 840 841 842 843 844 846 847 848 848 849 850 851 852 853 854 855 856 857 858
774 773 774 771 765 770 772 765 765 766 764 765 767 771 762 748 748 745 739 742 743 742 744 744 743 741 741 742 742 743 744 747 752 756 758 760 762 766 771 774 777 779 782 784 786 788 789 791 793 795 797 801 804 805 807 809 812 814 816 818 820 821 823 826 827 828 828 828 829 829 830 831 833 836 837 838 838 839 839 840 842 843 844 845 846 847 848 849 850 851 852 853 854 854 855 857 858
772 769 769 770 767 768 767 764 770 773 768 761 765 776 763 740 742 743 738 742 743 740 742 743 741 740 740 741 741 741 742 744 749 754 757 759 761 765 771 774 776 779 781 784 785 787 789 790 792 795 797 799 802 804 806 808 810 812 814 817 819 820 822 824 825 825 826 827 827 828 829 831 833 834 836 837 838 838 839 840 841 842 844 845 846 847 848 848 849 851 852 853 854 854 855 856 857
774 765 763 766 766 767 767 767 774 775 768 760 762 773 766 745 741 741 739 742 741 738 741 741 740 740 740 739 738 738 740 743 747 751 754 757 760 764 770 773 776 778 780 783 785 786 788 789 791 794 796 797 799 802 805 806 808 810 813 815 817 819 820 822 822 823 824 825 826 827 828 830 832 834 835 836 837 838 838 839 840 842 843 844 845 846 847 847 848 850 852 853 854 854 855 855 857
773 762 762 765 764 767 768 769 772 766 761 763 759 762 769 758 742 737 739 743 741 738 742 743 743 743 741 740 738 736 738 743 747 750 752 756 759 762 768 773 776 778 780 782 784 786 786 788 790 792 795 797 798 801 804 805 806 809 813 815 818 820 820 820 821 822 823 824 825 826 828 830 832 833 835 836 837 837 838 839 840 841 842 843 844 845 846 847 848 850 851 852 853 854 855 855 856
767 760 764 764 764 767 765 765 768 763 767 771 757 755 771 762 740 736 741 743 741 739 743 746 745 745 744 742 740 737 739 743 745 749 752 754 757 762 768 773 776 777 779 781 782 784 785 786 788 791 793 795 797 799 802 804 805 809 812 815 819 821 819 818 820 821 822 823 824 826 827 829 831 833 835 836 837 837 838 839 839 840 841 842 843 845 845 846 848 849 851 852 853 854 854 855 855
762 761 766 765 765 765 764 765 763 765 778 775 754 753 769 761 740 737 743 743 741 740 743 746 745 745 745 744 742 739 740 744 746 748 751 753 758 763 768 772 775 777 778 779 781 782 783 784 786 789 791 793 795 797 800 803 806 810 812 814 817 819 818 817 819 820 821 822 824 825 827 829 831 833 834 836 837 837 838 838 839 840 841 841 843 844 845 846 847 849 850 852 853 853 854 855 855
762 764 765 764 764 763 765 764 761 772 783 768 750 750 764 765 745 733 741 747 745 745 746 747 747 746 745 744 743 740 742 746 748 750 752 755 760 765 768 772 774 775 776 778 781 782 782 783 785 788 791 793 795 797 800 803 806 810 812 814 817 818 817 817 818 819 820 822 823 825 827 829 831 833 834 835 836 837 838 838 839 840 840 841 842 843 844 846 847 848 850 851 852 853 854 855 855
765 767 764 767 768 767 770 768 769 783 779 760 749 748 760 769 750 734 742 746 745 748 749 750 751 749 746 745 743 741 742 746 749 752 755 758 762 764 768 771 772 774 776 779 783 784 783 784 785 788 790 793 795 797 801 804 806 810 812 814 818 819 816 816 817 818 820 821 823 825 827 829 831 833 834 835 836 837 837 838 839 839 840 841 841 842 844 845 847 848 849 850 851 852 853 854 855
766 766 767 774 775 777 782 777 776 780 768 756 751 752 760 760 744 739 744 744 744 748 749 751 753 750 746 744 743 742 743 745 749 753 757 759 762 764 767 769 770 771 774 777 781 783 784 785 787 789 791 793 796 798 801 804 806 810 813 816 819 818 816 815 816 817 819 821 823 825 827 829 830 832 833 834 835 836 837 838 838 839 839 840 841 842 843 844 846 847 848 850 851 852 853 854 854
766 765 768 774 776 784 791 780 774 772 763 757 752 756 763 752 741 742 745 745 746 747 747 751 752 750 747 743 742 744 744 746 750 752 756 759 761 764 766 767 769 768 769 770 773 778 782 785 787 788 790 793 796 799 802 804 806 809 812 817 819 817 814 815 815 817 819 821 823 824 826 828 829 831 832 834 835 836 837 838 838 839 839 840 841 842 843 844 845 846 847 849 850 851 852 853 854
758 754 756 764 766 777 784 775 771 768 763 761 760 763 762 751 747 745 743 745 745 745 747 750 751 749 748 745 743 745 745 747 752 755 758 759 760 763 763 764 766 766 767 768 770 774 778 781 783 784 786 789 794 799 801 803 805 808 811 815 817 815 813 814 814 816 818 820 822 824 826 828 829 831 832 833 835 836 837 837 838 839 839 840 840 841 842 843 844 846 847 848 850 851 852 853 854
751 745 753 761 754 757 768 770 769 769 767 764 762 759 746 739 744 742 741 745 743 745 747 750 753 751 750 751 748 747 747 750 755 758 759 760 760 762 762 763 765 765 766 766 768 772 775 778 779 779 781 785 791 797 799 799 802 805 807 811 813 813 812 812 813 814 817 820 822 824 826 828 829 831 832 833 834 835 836 837 838 838 839 839 840 841 842 843 844 845 847 848 849 850 851 852 853
752 753 757 751 741 745 762 771 770 773 777 766 756 754 739 734 743 741 741 745 744 747 750 751 756 754 754 757 756 753 753 754 757 758 759 760 759 760 762 763 765 766 766 764 766 770 774 777 778 778 780 784 790 795 796 796 798 801 804 807 811 811 810 811 812 814 817 820 823 825 826 828 829 831 832 833 834 835 836 837 838 838 839 839 840 841 842 842 843 845 846 848 849 849 850 851 852
752 757 750 740 742 747 756 769 771 772 778 765 753 756 748 742 750 748 745 748 748 750 752 753 757 757 757 759 760 759 758 757 757 757 758 758 758 760 762 763 764 766 765 763 764 769 773 776 779 780 780 784 789 793 794 794 796 799 802 805 809 810 809 811 812 814 818 820 822 824 826 828 829 831 832 833 835 836 836 837 838 838 838 839 839 840 841 842 843 844 846 847 848 849 849 850 851
744 748 741 743 759 760 757 768 773 773 777 768 755 754 748 742 747 750 751 753 752 753 754 756 761 763 763 762 762 762 760 759 757 757 758 758 759 761 762 763 764 765 766 764 763 768 772 775 778 780 781 784 789 792 795 796 796 797 801 805 807 808 809 811 812 815 818 820 822 824 826 828 829 830 832 833 834 835 836 837 837 838 838 839 839 840 841 841 843 844 845 846 847 848 849 849 850
744 746 742 743 753 756 755 758 759 764 773 770 761 756 749 744 746 750 754 756 756 757 760 765 769 772 771 769 769 768 765 764 761 759 759 759 760 761 761 763 763 764 767 765 763 765 769 772 776 779 781 785 789 791 794 798 798 798 800 804 805 807 809 811 813 815 818 820 822 824 825 827 828 830 831 832 833 834 835 836 837 838 838 838 839 839 840 841 842 843 844 845 846 847 848 849 849
746 751 751 748 747 747 752 751 745 751 762 765 764 761 755 755 754 752 756 759 761 761 765 772 776 777 776 775 775 774 771 768 766 763 761 760 762 762 762 763 763 764 767 767 764 762 765 771 774 777 780 783 786 787 790 795 796 797 799 802 804 807 809 811 813 816 818 820 822 823 825 826 827 829 830 831 833 833 835 836 836 837 837 838 839 839 840 841 842 842 843 844 845 846 847 848 849
742 746 744 745 745 747 760 763 747 743 751 755 758 760 760 761 757 755 760 765 769 768 769 775 779 780 780 779 778 778 775 772 770 768 765 763 762 763 763 763 763 764 766 767 766 763 764 769 773 776 778 780 783 784 787 790 793 796 798 801 804 806 809 811 813 816 818 819 821 823 825 826 827 829 830 831 832 833 834 835 836 837 837 838 838 839 839 840 841 842 843 844 845 846 847 848 849